• In Belarus
  • List of Countries
  • For 7 days
  • Water Temperature
  • Weather Map
  • Weather Widgets
  • user-avatar
    Login

    Hourly Weather Malanville

    Today, 23 August, Friday

    Time Temperature Precipitation Wind Pressure Humidity
    00:00 +25°C° 0.5 mm 3 mps 745 mmHg 94%
    01:00 +25°C° 0.9 mm 3 mps 744 mmHg 94%
    02:00 +25°C° 0.9 mm 2 mps 744 mmHg 95%
    03:00 +25°C° 0.9 mm 2 mps 743 mmHg 95%
    04:00 +25°C° 1.2 mm 2 mps 744 mmHg 95%
    05:00 +25°C° 1.2 mm 2 mps 744 mmHg 96%
    06:00 +25°C° 1.2 mm 2 mps 745 mmHg 96%
    07:00 +25°C° 0.2 mm 2 mps 745 mmHg 92%
    08:00 +26°C° 0.2 mm 2 mps 745 mmHg 88%
    09:00 +27°C° 0.2 mm 2 mps 745 mmHg 84%
    10:00 +28°C° 0.5 mm 2 mps 745 mmHg 79%
    11:00 +30°C° 0.5 mm 2 mps 745 mmHg 75%
    12:00 +31°C° 0.5 mm 3 mps 744 mmHg 70%
    13:00 +31°C° 0.2 mm 2 mps 743 mmHg 67%
    14:00 +32°C° 0.2 mm 2 mps 743 mmHg 65%
    15:00 +32°C° 0.2 mm 2 mps 742 mmHg 63%
    16:00 +31°C° 0.6 mm 2 mps 742 mmHg 69%
    17:00 +30°C° 0.6 mm 2 mps 742 mmHg 76%
    18:00 +28°C° 0.6 mm 2 mps 742 mmHg 82%
    19:00 +28°C° 0.3 mm 2 mps 743 mmHg 84%
    20:00 +27°C° 0.3 mm 2 mps 743 mmHg 85%
    21:00 +26°C° 0.3 mm 3 mps 744 mmHg 87%
    22:00 +26°C° 0.4 mm 3 mps 744 mmHg 88%
    23:00 +26°C° 0.4 mm 3 mps 744 mmHg 90%

    Tomorrow, 24 August, Saturday

    Time Temperature Precipitation Wind Pressure Humidity
    00:00 +25°C° 0.4 mm 3 mps 744 mmHg 91%
    01:00 +25°C° 0 mm 3 mps 744 mmHg 92%
    02:00 +25°C° 0 mm 3 mps 744 mmHg 93%
    03:00 +25°C° 0 mm 3 mps 744 mmHg 95%
    04:00 +25°C° 0 mm 2 mps 744 mmHg 95%
    05:00 +25°C° 0 mm 2 mps 744 mmHg 95%
    06:00 +25°C° 0 mm 2 mps 744 mmHg 95%
    07:00 +26°C° 0.1 mm 3 mps 745 mmHg 90%
    08:00 +27°C° 0.1 mm 5 mps 745 mmHg 86%
    09:00 +28°C° 0.1 mm 6 mps 746 mmHg 81%
    10:00 +29°C° 0.2 mm 6 mps 745 mmHg 77%
    11:00 +30°C° 0.2 mm 6 mps 745 mmHg 74%
    12:00 +30°C° 0.2 mm 6 mps 745 mmHg 70%
    13:00 +32°C° 0.3 mm 6 mps 744 mmHg 69%
    14:00 +32°C° 0.3 mm 6 mps 744 mmHg 68%
    15:00 +32°C° 0.3 mm 6 mps 743 mmHg 67%
    16:00 +30°C° 0.1 mm 5 mps 743 mmHg 71%
    17:00 +29°C° 0.1 mm 5 mps 743 mmHg 75%
    18:00 +28°C° 0.1 mm 4 mps 744 mmHg 79%
    19:00 +27°C° 0 mm 4 mps 744 mmHg 80%
    20:00 +27°C° 0 mm 4 mps 745 mmHg 81%
    21:00 +26°C° 0 mm 4 mps 745 mmHg 83%
    22:00 +26°C° 0 mm 3 mps 745 mmHg 83%
    23:00 +26°C° 0 mm 3 mps 745 mmHg 83%

    Day after tomorrow, 25 August, Sunday

    Time Temperature Precipitation Wind Pressure Humidity
    00:00 +26°C° 0 mm 3 mps 745 mmHg 84%
    01:00 +25°C° 0 mm 3 mps 745 mmHg 84%
    02:00 +25°C° 0 mm 3 mps 744 mmHg 84%
    03:00 +25°C° 0 mm 3 mps 744 mmHg 84%
    04:00 +25°C° 0 mm 3 mps 744 mmHg 85%
    05:00 +25°C° 0 mm 3 mps 745 mmHg 86%
    06:00 +24°C° 0 mm 2 mps 745 mmHg 87%
    07:00 +25°C° 0 mm 4 mps 745 mmHg 83%
    08:00 +26°C° 0 mm 5 mps 746 mmHg 79%
    09:00 +28°C° 0 mm 6 mps 746 mmHg 75%
    10:00 +28°C° 0.3 mm 6 mps 746 mmHg 74%
    11:00 +29°C° 0.3 mm 5 mps 746 mmHg 73%
    12:00 +29°C° 0.3 mm 5 mps 745 mmHg 72%
    13:00 +29°C° 1.9 mm 5 mps 745 mmHg 75%
    14:00 +28°C° 1.9 mm 5 mps 744 mmHg 78%
    15:00 +28°C° 1.9 mm 5 mps 743 mmHg 81%
    16:00 +27°C° 1.4 mm 4 mps 744 mmHg 84%
    17:00 +26°C° 1.4 mm 3 mps 744 mmHg 87%
    18:00 +26°C° 1.4 mm 3 mps 744 mmHg 89%
    19:00 +26°C° 0.1 mm 3 mps 744 mmHg 90%
    20:00 +25°C° 0.1 mm 3 mps 744 mmHg 91%
    21:00 +25°C° 0.1 mm 2 mps 745 mmHg 92%
    22:00 +25°C° 0 mm 3 mps 745 mmHg 93%
    23:00 +25°C° 0 mm 3 mps 745 mmHg 94%

    26 August, Monday

    Time Temperature Precipitation Wind Pressure Humidity
    00:00 +24°C° 0 mm 3 mps 745 mmHg 95%
    01:00 +24°C° 0 mm 2 mps 744 mmHg 95%
    02:00 +24°C° 0 mm 2 mps 744 mmHg 95%
    03:00 +23°C° 0 mm 2 mps 744 mmHg 95%
    04:00 +23°C° 0 mm 2 mps 744 mmHg 94%
    05:00 +23°C° 0 mm 2 mps 744 mmHg 94%
    06:00 +23°C° 0 mm 2 mps 745 mmHg 94%
    07:00 +25°C° 0 mm 3 mps 745 mmHg 88%
    08:00 +27°C° 0 mm 4 mps 745 mmHg 82%
    09:00 +28°C° 0 mm 5 mps 746 mmHg 77%
    10:00 +29°C° 0.7 mm 5 mps 745 mmHg 74%
    11:00 +30°C° 0.7 mm 5 mps 745 mmHg 71%
    12:00 +30°C° 0.7 mm 5 mps 744 mmHg 69%
    13:00 +32°C° 1.7 mm 4 mps 744 mmHg 69%
    14:00 +32°C° 1.7 mm 4 mps 743 mmHg 69%
    15:00 +32°C° 1.7 mm 4 mps 743 mmHg 69%
    16:00 +30°C° 1.2 mm 3 mps 743 mmHg 74%
    17:00 +28°C° 1.2 mm 3 mps 743 mmHg 80%
    18:00 +27°C° 1.2 mm 2 mps 743 mmHg 85%
    19:00 +27°C° 0.2 mm 2 mps 744 mmHg 86%
    20:00 +26°C° 0.2 mm 2 mps 744 mmHg 87%
    21:00 +26°C° 0.2 mm 2 mps 745 mmHg 89%
    22:00 +26°C° 0.3 mm 2 mps 745 mmHg 89%
    23:00 +25°C° 0.3 mm 2 mps 745 mmHg 90%

    27 August, Tuesday

    Time Temperature Precipitation Wind Pressure Humidity
    00:00 +25°C° 0.3 mm 2 mps 744 mmHg 90%
    01:00 +25°C° 0 mm 2 mps 744 mmHg 91%
    02:00 +25°C° 0 mm 2 mps 744 mmHg 92%
    03:00 +25°C° 0 mm 2 mps 744 mmHg 92%
    04:00 +25°C° 0.1 mm 2 mps 744 mmHg 92%
    05:00 +25°C° 0.1 mm 2 mps 745 mmHg 92%
    06:00 +25°C° 0.1 mm 2 mps 745 mmHg 92%
    07:00 +26°C° 0 mm 3 mps 745 mmHg 88%
    08:00 +26°C° 0 mm 3 mps 746 mmHg 85%
    09:00 +27°C° 0 mm 4 mps 746 mmHg 81%
    10:00 +29°C° 0.1 mm 4 mps 746 mmHg 76%
    11:00 +30°C° 0.1 mm 4 mps 745 mmHg 70%
    12:00 +33°C° 0.1 mm 4 mps 744 mmHg 64%
    13:00 +33°C° 1.4 mm 3 mps 744 mmHg 65%
    14:00 +33°C° 1.4 mm 3 mps 743 mmHg 66%
    15:00 +33°C° 1.4 mm 3 mps 743 mmHg 66%
    16:00 +30°C° 1.6 mm 2 mps 743 mmHg 72%
    17:00 +29°C° 1.6 mm 2 mps 743 mmHg 77%
    18:00 +28°C° 1.6 mm 2 mps 743 mmHg 83%
    19:00 +27°C° 0.1 mm 2 mps 743 mmHg 84%
    20:00 +27°C° 0.1 mm 3 mps 744 mmHg 86%
    21:00 +26°C° 0.1 mm 3 mps 745 mmHg 87%
    22:00 +26°C° 0 mm 3 mps 745 mmHg 88%
    23:00 +26°C° 0 mm 3 mps 745 mmHg 89%

    28 August, Wednesday

    Time Temperature Precipitation Wind Pressure Humidity
    00:00 +26°C° 0 mm 3 mps 745 mmHg 90%
    01:00 +25°C° 0.3 mm 3 mps 744 mmHg 91%
    02:00 +25°C° 0.3 mm 3 mps 744 mmHg 92%
    03:00 +25°C° 0.3 mm 3 mps 744 mmHg 93%
    04:00 +25°C° 1.1 mm 2 mps 744 mmHg 93%
    05:00 +25°C° 1.1 mm 2 mps 744 mmHg 94%
    06:00 +25°C° 1.1 mm 1 mps 745 mmHg 94%
    07:00 +25°C° 0.5 mm 2 mps 745 mmHg 93%
    08:00 +25°C° 0.5 mm 3 mps 745 mmHg 92%
    09:00 +26°C° 0.5 mm 4 mps 746 mmHg 91%
    10:00 +26°C° 0 mm 5 mps 745 mmHg 87%
    11:00 +27°C° 0 mm 5 mps 745 mmHg 84%
    12:00 +27°C° 0 mm 6 mps 745 mmHg 81%
    13:00 +28°C° 0 mm 6 mps 744 mmHg 81%
    14:00 +28°C° 0 mm 5 mps 744 mmHg 80%
    15:00 +28°C° 0 mm 5 mps 743 mmHg 80%
    16:00 +27°C° 0.3 mm 4 mps 743 mmHg 83%
    17:00 +26°C° 0.3 mm 3 mps 744 mmHg 86%
    18:00 +26°C° 0.3 mm 2 mps 744 mmHg 88%
    19:00 +25°C° 0.5 mm 3 mps 744 mmHg 89%
    20:00 +25°C° 0.5 mm 3 mps 745 mmHg 90%
    21:00 +25°C° 0.5 mm 3 mps 745 mmHg 91%
    22:00 +25°C° 0.1 mm 3 mps 745 mmHg 92%
    23:00 +25°C° 0.1 mm 2 mps 745 mmHg 93%
    Show more